TimeMST,TemperatureF,Dew PointF,Humidity,Sea Level PressureIn,VisibilityMPH,Wind Direction,Wind SpeedMPH,Gust SpeedMPH,PrecipitationIn,Events,Conditions,WindDirDegrees,DateUTC
12:15 AM,10.4,5.0,79,30.57,10.0,South,3.5,-,N/A,,Clear,170,2013-01-02 07:15:00
12:35 AM,10.4,3.2,73,30.57,10.0,South,4.6,-,N/A,,Clear,180,2013-01-02 07:35:00
12:55 AM,12.2,5.0,73,30.57,10.0,SSE,4.6,-,N/A,,Scattered Clouds,160,2013-01-02 07:55:00
1:15 AM,12.2,6.8,79,30.57,10.0,Calm,Calm,-,N/A,,Overcast,0,2013-01-02 08:15:00
1:35 AM,12.2,6.8,79,30.57,10.0,Calm,Calm,-,N/A,,Overcast,0,2013-01-02 08:35:00
2:15 AM,14.0,8.6,79,30.57,10.0,Calm,Calm,-,N/A,,Overcast,0,2013-01-02 09:15:00
2:35 AM,15.8,8.6,73,30.58,10.0,East,3.5,-,N/A,,Overcast,80,2013-01-02 09:35:00
2:55 AM,15.8,8.6,73,30.56,10.0,East,3.5,-,N/A,,Overcast,90,2013-01-02 09:55:00
3:15 AM,15.8,8.6,73,30.57,10.0,ENE,3.5,-,N/A,,Overcast,70,2013-01-02 10:15:00
3:55 AM,17.6,8.6,68,30.56,10.0,ENE,3.5,-,N/A,,Overcast,60,2013-01-02 10:55:00
4:15 AM,17.6,10.4,73,30.56,10.0,ENE,4.6,-,N/A,,Overcast,70,2013-01-02 11:15:00
4:35 AM,17.6,10.4,73,30.56,10.0,ENE,4.6,-,N/A,,Overcast,70,2013-01-02 11:35:00
4:55 AM,17.6,10.4,73,30.56,10.0,ENE,3.5,-,N/A,,Overcast,60,2013-01-02 11:55:00
5:15 AM,17.6,10.4,73,30.55,10.0,Calm,Calm,-,N/A,,Overcast,0,2013-01-02 12:15:00
5:35 AM,17.6,10.4,73,30.55,9.0,Calm,Calm,-,N/A,,Overcast,0,2013-01-02 12:35:00
5:55 AM,17.6,10.4,73,30.56,10.0,Calm,Calm,-,N/A,,Overcast,0,2013-01-02 12:55:00
6:15 AM,17.6,10.4,73,30.56,10.0,Calm,Calm,-,N/A,,Overcast,0,2013-01-02 13:15:00
6:35 AM,17.6,10.4,73,30.56,8.0,Calm,Calm,-,N/A,,Overcast,0,2013-01-02 13:35:00
6:55 AM,17.6,10.4,73,30.56,10.0,Calm,Calm,-,N/A,,Overcast,0,2013-01-02 13:55:00
7:15 AM,17.6,12.2,79,30.56,10.0,Calm,Calm,-,N/A,,Overcast,0,2013-01-02 14:15:00
7:35 AM,17.6,12.2,79,30.56,9.0,Calm,Calm,-,N/A,,Overcast,0,2013-01-02 14:35:00
7:55 AM,17.6,12.2,79,30.56,9.0,Calm,Calm,-,N/A,,Overcast,0,2013-01-02 14:55:00
8:15 AM,17.6,12.2,79,30.56,6.0,Calm,Calm,-,N/A,,Overcast,0,2013-01-02 15:15:00
8:35 AM,17.6,10.4,73,30.56,5.0,Calm,Calm,-,N/A,,Overcast,0,2013-01-02 15:35:00
8:55 AM,17.6,10.4,73,30.56,6.0,NW,3.5,-,N/A,,Overcast,320,2013-01-02 15:55:00
9:15 AM,17.6,10.4,73,30.57,5.0,NW,4.6,-,N/A,,Overcast,310,2013-01-02 16:15:00
9:35 AM,17.6,10.4,73,30.57,5.0,NW,3.5,-,N/A,,Overcast,320,2013-01-02 16:35:00
9:55 AM,17.6,10.4,73,30.58,3.0,NW,3.5,-,N/A,,Overcast,310,2013-01-02 16:55:00
10:15 AM,17.6,12.2,79,30.59,3.0,Calm,Calm,-,N/A,,Overcast,0,2013-01-02 17:15:00
10:35 AM,19.4,12.2,74,30.60,2.5,Calm,Calm,-,N/A,,Overcast,0,2013-01-02 17:35:00
10:55 AM,19.4,12.2,74,30.61,3.0,Calm,Calm,-,N/A,,Overcast,0,2013-01-02 17:55:00
11:15 AM,19.4,12.2,74,30.61,5.0,South,5.8,-,N/A,,Overcast,180,2013-01-02 18:15:00
11:35 AM,19.4,12.2,74,30.61,10.0,SE,8.1,-,N/A,,Overcast,140,2013-01-02 18:35:00
11:55 AM,21.2,10.4,63,30.60,10.0,SSE,11.5,-,N/A,,Overcast,150,2013-01-02 18:55:00
12:35 PM,21.2,8.6,58,30.58,10.0,SE,15.0,-,N/A,,Mostly Cloudy,140,2013-01-02 19:35:00
12:55 PM,21.2,8.6,58,30.58,10.0,SE,16.1,-,N/A,,Scattered Clouds,140,2013-01-02 19:55:00
1:15 PM,21.2,8.6,58,30.58,10.0,SE,12.7,-,N/A,,Partly Cloudy,130,2013-01-02 20:15:00
1:35 PM,21.2,8.6,58,30.57,10.0,SE,12.7,-,N/A,,Clear,140,2013-01-02 20:35:00
1:55 PM,21.2,8.6,58,30.57,10.0,SE,13.8,-,N/A,,Clear,140,2013-01-02 20:55:00
2:15 PM,21.2,8.6,58,30.56,10.0,SE,9.2,-,N/A,,Clear,140,2013-01-02 21:15:00
2:35 PM,21.2,8.6,58,30.56,10.0,SE,11.5,-,N/A,,Clear,140,2013-01-02 21:35:00
2:55 PM,21.2,8.6,58,30.56,10.0,SE,13.8,-,N/A,,Clear,140,2013-01-02 21:55:00
3:15 PM,21.2,8.6,58,30.57,10.0,SE,11.5,-,N/A,,Clear,140,2013-01-02 22:15:00
3:35 PM,21.2,8.6,58,30.57,10.0,ESE,10.4,-,N/A,,Clear,120,2013-01-02 22:35:00
4:15 PM,21.2,8.6,58,30.56,10.0,SE,9.2,-,N/A,,Clear,130,2013-01-02 23:15:00
4:35 PM,21.2,6.8,54,30.56,10.0,SE,8.1,-,N/A,,Clear,140,2013-01-02 23:35:00
4:55 PM,19.4,6.8,58,30.56,10.0,SE,5.8,-,N/A,,Clear,140,2013-01-02 23:55:00
5:15 PM,17.6,6.8,63,30.56,10.0,SE,5.8,-,N/A,,Clear,130,2013-01-03 00:15:00
5:55 PM,17.6,6.8,63,30.56,10.0,SE,4.6,-,N/A,,Clear,130,2013-01-03 00:55:00
6:15 PM,15.8,5.0,62,30.56,10.0,ESE,5.8,-,N/A,,Clear,120,2013-01-03 01:15:00
6:35 PM,15.8,6.8,68,30.57,10.0,SE,4.6,-,N/A,,Clear,130,2013-01-03 01:35:00
6:55 PM,15.8,6.8,68,30.57,10.0,SSE,4.6,-,N/A,,Clear,150,2013-01-03 01:55:00
7:15 PM,14.0,3.2,62,30.57,10.0,Calm,Calm,-,N/A,,Clear,0,2013-01-03 02:15:00
7:35 PM,14.0,6.8,73,30.57,10.0,Calm,Calm,-,N/A,,Scattered Clouds,0,2013-01-03 02:35:00
7:55 PM,14.0,6.8,73,30.57,10.0,East,4.6,-,N/A,,Mostly Cloudy,80,2013-01-03 02:55:00
8:15 PM,12.2,6.8,79,30.57,10.0,East,3.5,-,N/A,,Overcast,100,2013-01-03 03:15:00
8:35 PM,12.2,3.2,67,30.57,10.0,ESE,5.8,-,N/A,,Mostly Cloudy,110,2013-01-03 03:35:00
8:55 PM,12.2,3.2,67,30.57,10.0,ESE,8.1,-,N/A,,Scattered Clouds,110,2013-01-03 03:55:00
9:15 PM,10.4,1.4,67,30.57,10.0,ESE,8.1,-,N/A,,Clear,110,2013-01-03 04:15:00
9:55 PM,10.4,1.4,67,30.56,10.0,ESE,8.1,-,N/A,,Clear,120,2013-01-03 04:55:00
10:15 PM,10.4,-0.4,62,30.56,10.0,ESE,9.2,-,N/A,,Clear,120,2013-01-03 05:15:00
10:35 PM,10.4,1.4,67,30.56,10.0,ESE,6.9,-,N/A,,Clear,110,2013-01-03 05:35:00
10:55 PM,10.4,1.4,67,30.56,10.0,ESE,5.8,-,N/A,,Clear,120,2013-01-03 05:55:00
11:15 PM,8.6,-0.4,67,30.56,10.0,ESE,4.6,-,N/A,,Clear,120,2013-01-03 06:15:00
11:35 PM,8.6,-0.4,67,30.56,10.0,SSE,3.5,-,N/A,,Clear,160,2013-01-03 06:35:00
11:55 PM,8.6,-0.4,67,30.56,10.0,South,4.6,-,N/A,,Clear,170,2013-01-03 06:55:00